This is the latest recevied weather packets stored in our database for station/object N5YHM-13. If no packets are shown the sender has not sent any weather packets the latest 10 day(s).
| Time | Temp. | Humidity | Pressure | Rain* | Wind** | Luminosity | Snow |
|---|---|---|---|---|---|---|---|
| 1787582838 | 30° C | 86% | 1017.8 hPa | 0 mm | - | 22 W/m² | - |
| 1787582534 | 30° C | 89% | 1017.8 hPa | 0 mm | - | 48 W/m² | - |
| 1787582229 | 30° C | 89% | 1017.9 hPa | 0 mm | - | 14 W/m² | - |
| 1787581923 | 30° C | 90% | 1017.8 hPa | 0 mm | - | 11 W/m² | - |
| 1787581619 | 29.44° C | 90% | 1017.7 hPa | 0 mm | - | 42 W/m² | - |
| 1787581318 | 29.44° C | 91% | 1017.7 hPa | 0 mm | - | 184 W/m² | - |
| 1787581014 | 29.44° C | 91% | 1017.6 hPa | 0 mm | - | 68 W/m² | - |
| 1787580709 | 29.44° C | 92% | 1017.7 hPa | 0 mm | - | 10 W/m² | - |
| 1787580405 | 29.44° C | 93% | 1017.4 hPa | 0 mm | - | 16 W/m² | - |
| 1787580100 | 28.89° C | 94% | 1017.7 hPa | 0 mm | - | 9 W/m² | - |
| 1787579794 | 28.89° C | 94% | 1017.9 hPa | 0 mm | - | 45 W/m² | - |
| 1787579493 | 28.89° C | 95% | 1017.9 hPa | 0 mm | - | 31 W/m² | - |
| 1787579189 | 28.33° C | 96% | 1017.8 hPa | 0 mm | - | 9 W/m² | - |
| 1787578884 | 28.33° C | 97% | 1018 hPa | 0 mm | - | 9 W/m² | - |
| 1787578580 | 27.78° C | 97% | 1018.1 hPa | 0 mm | - | 8 W/m² | - |
| 1787578279 | 27.78° C | 98% | 1018.1 hPa | 0 mm | - | 10 W/m² | - |
| 1787577975 | 27.22° C | 99% | 1018 hPa | 0 mm | - | 55 W/m² | - |
| 1787577670 | 27.22° C | 99% | 1018 hPa | 0 mm | - | 10 W/m² | - |
| 1787577366 | 26.67° C | 99% | 1018.1 hPa | 0 mm | - | 14 W/m² | - |
| 1787577062 | 26.67° C | 99% | 1018.1 hPa | 0 mm | - | 6 W/m² | - |
| 1787576758 | 26.11° C | 99% | 1018.1 hPa | 0 mm | - | 6 W/m² | - |
| 1787576453 | 26.11° C | 99% | 1017.7 hPa | 0 mm | - | 6 W/m² | - |
| 1787576149 | 25.56° C | 99% | 1018 hPa | 0 mm | - | 6 W/m² | - |
| 1787575844 | 25.56° C | 99% | 1018 hPa | 0 mm | - | 5 W/m² | - |
| 1787575539 | 25.56° C | 99% | 1018 hPa | 0 mm | - | 7 W/m² | - |
* Rain latest hour (hover to see other rain measurements)
** Current wind speed in m/s (hover to see current wind gust speed)